Hourly Data Report for October 29, 2016

All times are specified in Local Standard Time (LST). Add 1 hour to adjust for Daylight Saving Time where and when it is observed.

PENTICTON A
BRITISH COLUMBIA

49°27'45.000" N
119°36'08.000" W
344.40 m
1126146
71889
YYF

Download Data

Hourly Data (October 2016)
Hourly Data Report for October 29, 2016
Temp Definition
°C
Dew Point Temp Definition
°C
Rel Hum Definition
%
Wind Dir Definition
10's deg

Wind Spd Definition
km/h
Visibility Definition
km
Stn Press Definition
kPa
Hmdx Definition


Wind Chill Definition


Weather Definition


TIME
00:00 Legend Double Dagger 4.6 3.9 95 36 2 24.1 97.69     LegendNANA
01:00 Legend Double Dagger 4.6 3.7 94 36 7 24.1 97.68     Mostly Cloudy
02:00 Legend Double Dagger 5.2 4.0 92 36 10 24.1 97.66     LegendNANA
03:00 Legend Double Dagger 5.5 4.2 91 36 1 24.1 97.68     LegendNANA
04:00 Legend Double Dagger 4.4 3.4 93 36 1 24.1 97.67     Cloudy
05:00 Legend Double Dagger 3.6 3.2 97 36 2 24.1 97.61     LegendNANA
06:00 Legend Double Dagger 3.4 3.1 98 36 3 24.1 97.61     LegendNANA
07:00 Legend Double Dagger 3.7 3.1 96 36 3 24.1 97.59     Mostly Cloudy
08:00 Legend Double Dagger 4.6 4.3 98 0 1 24.1 97.57     LegendNANA
09:00 Legend Double Dagger 7.0 5.6 91 0 1 24.1 97.57     LegendNANA
10:00 Legend Double Dagger 7.8 5.1 83 16 5 24.1 97.57     Cloudy
11:00 Legend Double Dagger 8.6 5.4 80 36 1 24.1 97.51     LegendNANA
12:00 Legend Double Dagger 9.1 5.5 78 36 7 24.1 97.44     LegendNANA
13:00 Legend Double Dagger 9.4 5.8 78 36 9 24.1 97.38     Cloudy
14:00 Legend Double Dagger 9.5 5.9 78 1 6 24.1 97.39     LegendNANA
15:00 Legend Double Dagger 9.4 5.6 77 36 3 24.1 97.39     LegendNANA
16:00 Legend Double Dagger 8.7 5.3 79 36 1 24.1 97.38     Mostly Cloudy
17:00 Legend Double Dagger 9.2 6.1 81 19 13 24.1 97.42     LegendNANA
18:00 Legend Double Dagger 8.8 5.6 80 13 8 24.1 97.40     LegendNANA
19:00 Legend Double Dagger 7.4 5.4 87 2 8 24.1 97.43     Cloudy
20:00 Legend Double Dagger 8.1 5.4 83 25 12 24.1 97.45     LegendNANA
21:00 Legend Double Dagger 5.8 4.3 90 36 9 24.1 97.46     LegendNANA
22:00 Legend Double Dagger 5.0 4.1 94 35 7 24.1 97.47     Mostly Cloudy
23:00 Legend Double Dagger 4.6 3.9 95 1 8 24.1 97.43     LegendNANA

Notes on Data Quality.

Legend

  • E = Estimated
  • M = Missing
  • NA = Not Available
  • ‡ = Partner data that is not subject to review by the National Climate Archives
Date modified: